Weather in Pryazovske

Ukraine / Zaporizhia Region     46°44′16″N   35°38′04″E
temp.,
°C
wind,
m/s
gust,
m/s
humid.,
%
clouds,
%
prec.,
mm/h
press.,
hPa
HPBL,
m
19 january, tue
tue1923:00−12nw468394 0.0 1019331
02:00−13wnw359076 0.0 1020231
05:00−14w36910 0.0 1020213
08:00−13wnw47897 0.0 1021312
11:00−11wnw347498 0.0 1023650
14:00−9w357199 0.0 1021715
17:00−11nw3484100 0.0 1022120
20:00−12wnw238954 0.0 102385
20 january, wed
wed2023:00−13wnw22908 0.0 102362
02:00−13nw229127 0.0 102452
05:00−13nw129218 0.0 102528
08:00−13nnw11909 0.0 102650
11:00−10ne11730 0.0 1026327
14:00−8se11680 0.0 1026394
17:00−10ese22830 0.0 102624
20:00−10e33830 0.0 102746
21 january, thu
thu2123:00−8e34870 0.0 102754
02:00−7e34886 0.0 102753
05:00−4ese469191 0.0 1027124
08:00−2ese599792 0.1 1027298
11:00+2se699096 0.1 1027567
14:00+3se599095 0.1 1026418
17:00+2se479386 0.0 1026124
20:00+3s479691 0.0 1026150
22 january, fri
fri2223:00+3ssw499392 0.0 1025173
02:00+3ssw489295 0.1 1025148
05:00+2ssw34911 0.0 102437
08:00+3sse349142 0.0 102569
11:00+6ssw612810 0.0 1024515
14:00+7ssw7137715 0.0 1022511
17:00+4s5128747 0.0 1022258
20:00+4s6128867 0.0 1022266
23 january, sat
sat2323:00+5s6138864 0.0 1020316
02:00+5s6138582 0.0 1020308
05:00+5s61383100 0.0 1019326
08:00+6s71481100 0.0 1019345
11:00+8s81476100 0.0 1019421
14:00+9s71371100 0.0 1018470
17:00+7s7147799 0.0 1017305
20:00+7s7148099 0.0 1017300